TimeCET,TemperatureF,Dew PointF,Humidity,Sea Level PressureIn,VisibilityMPH,Wind Direction,Wind SpeedMPH,Gust SpeedMPH,PrecipitationIn,Events,Conditions,WindDirDegrees,DateUTC
12:00 AM,30.2,28.4,93,29.62,6.2,South,6.9,-,N/A,,Mostly Cloudy,190,2012-12-05 23:00:00
12:30 AM,28.4,26.6,93,29.62,6.2,South,6.9,-,N/A,,Partly Cloudy,190,2012-12-05 23:30:00
1:00 AM,28,26,91,29.71,7,South,6.7,,,,Partly Cloudy,190,2012-12-06 00:00:00
1:00 AM,26.6,26.6,100,29.62,-9999.0,South,6.9,-,N/A,,Clear,180,2012-12-06 00:00:00
1:30 AM,28.4,26.6,93,29.62,-9999.0,South,6.9,-,N/A,,Clear,190,2012-12-06 00:30:00
2:00 AM,28.4,26.6,93,29.62,-9999.0,South,6.9,-,N/A,,Clear,190,2012-12-06 01:00:00
2:30 AM,28.4,28.4,100,29.62,5.6,South,8.1,-,N/A,Snow,Light Snow Showers,190,2012-12-06 01:30:00
3:00 AM,30.2,28.4,93,29.62,6.2,South,9.2,-,N/A,,Mostly Cloudy,190,2012-12-06 02:00:00
3:30 AM,30.2,28.4,93,29.62,6.2,South,11.5,-,N/A,,Overcast,190,2012-12-06 02:30:00
4:00 AM,32.0,28.4,87,29.62,6.2,South,10.4,-,N/A,,Partly Cloudy,190,2012-12-06 03:00:00
4:30 AM,30.2,28.4,93,29.62,-9999.0,South,10.4,-,N/A,,Clear,190,2012-12-06 03:30:00
5:00 AM,30.2,28.4,93,29.62,6.2,South,9.2,-,N/A,,Partly Cloudy,190,2012-12-06 04:00:00
5:30 AM,32.0,28.4,87,29.62,6.2,South,10.4,-,N/A,,Partly Cloudy,190,2012-12-06 04:30:00
6:00 AM,30.2,28.4,93,29.62,-9999.0,South,10.4,-,N/A,,Clear,190,2012-12-06 05:00:00
6:30 AM,30.2,28.4,93,29.62,6.2,South,10.4,-,N/A,,Partly Cloudy,190,2012-12-06 05:30:00
7:00 AM,31,28,86,29.70,9,SSW,11.2,,,,Partly Cloudy,210,2012-12-06 06:00:00
7:00 AM,30.2,28.4,93,29.62,6.2,South,9.2,-,N/A,,Mostly Cloudy,190,2012-12-06 06:00:00
7:18 AM,32.0,28.4,87,29.62,3.7,SSW,9.2,-,N/A,Snow,Light Snow Showers,200,2012-12-06 06:18:00
7:30 AM,32.0,28.4,87,29.62,2.2,SSW,9.2,-,N/A,Snow,Light Snow Showers,200,2012-12-06 06:30:00
7:34 AM,32.0,28.4,87,29.62,1.6,SSW,10.4,-,N/A,Snow,Snow Showers,200,2012-12-06 06:34:00
7:53 AM,32.0,28.4,87,29.62,2.2,SSW,12.7,-,N/A,Snow,Light Snow Showers,210,2012-12-06 06:53:00
8:00 AM,30.2,30.2,100,29.62,5.6,SSW,11.5,-,N/A,Snow,Light Snow Showers,210,2012-12-06 07:00:00
8:12 AM,30.2,28.4,93,29.62,6.2,SSW,12.7,-,N/A,,Partly Cloudy,210,2012-12-06 07:12:00
8:30 AM,30.2,28.4,93,29.62,6.2,SSW,11.5,-,N/A,,Partly Cloudy,210,2012-12-06 07:30:00
9:00 AM,32.0,28.4,87,29.65,6.2,SW,10.4,-,N/A,,Partly Cloudy,220,2012-12-06 08:00:00
9:24 AM,32.0,28.4,87,29.65,6.2,WSW,15.0,-,N/A,Snow,Light Snow Showers,240,2012-12-06 08:24:00
9:30 AM,32.0,28.4,87,29.65,2.8,WSW,16.1,-,N/A,Snow,Light Snow Showers,250,2012-12-06 08:30:00
9:32 AM,32.0,28.4,87,29.65,2.5,WSW,16.1,-,N/A,Snow,Snow Showers,250,2012-12-06 08:32:00
9:37 AM,32.0,28.4,87,29.65,4.3,WSW,18.4,-,N/A,Snow,Light Snow Showers,250,2012-12-06 08:37:00
9:51 AM,32.0,28.4,87,29.68,2.8,West,11.5,-,N/A,Snow,Snow Showers,270,2012-12-06 08:51:00
10:00 AM,32.0,28.4,87,29.68,2.8,NW,12.7,-,N/A,Snow,Snow Showers,310,2012-12-06 09:00:00
10:03 AM,30.2,26.6,86,29.68,1.9,NW,12.7,-,N/A,Snow,Snow Showers,310,2012-12-06 09:03:00
10:05 AM,30.2,26.6,86,29.68,1.2,NW,12.7,-,N/A,Snow,Snow Showers,320,2012-12-06 09:05:00
10:11 AM,30.2,28.4,93,29.68,-9999.0,NW,12.7,-,N/A,Snow,Snow Showers,310,2012-12-06 09:11:00
10:16 AM,30.2,28.4,93,29.68,3.1,NW,12.7,-,N/A,Snow,Light Snow Showers,310,2012-12-06 09:16:00
10:30 AM,30.2,28.4,93,29.71,3.7,WNW,13.8,-,N/A,Snow,Light Snow Showers,300,2012-12-06 09:30:00
10:41 AM,30.2,26.6,86,29.71,6.2,West,13.8,-,N/A,Snow,Light Snow Showers,280,2012-12-06 09:41:00
11:00 AM,28.4,23.0,80,29.71,6.2,WNW,16.1,-,N/A,Snow,Light Snow Showers,290,2012-12-06 10:00:00
11:04 AM,28.4,23.0,80,29.71,6.2,West,15.0,-,N/A,,Scattered Clouds,280,2012-12-06 10:04:00
11:30 AM,30.2,21.2,69,29.71,6.2,West,17.3,-,N/A,,Partly Cloudy,270,2012-12-06 10:30:00
12:00 PM,28.4,21.2,74,29.74,6.2,West,20.7,-,N/A,,Partly Cloudy,270,2012-12-06 11:00:00
12:03 PM,30.2,21.2,69,29.74,6.2,West,20.7,32.2,N/A,,Scattered Clouds,260,2012-12-06 11:03:00
12:30 PM,28.4,19.4,69,29.74,6.2,West,20.7,-,N/A,,Scattered Clouds,260,2012-12-06 11:30:00
12:52 PM,28.4,19.4,69,29.77,6.2,West,21.9,-,N/A,,Mostly Cloudy,260,2012-12-06 11:52:00
1:00 PM,29,18,52,29.84,31,West,20.1,,,,Partly Cloudy,270,2012-12-06 12:00:00
1:00 PM,28.4,19.4,69,29.77,6.2,West,23.0,-,N/A,,Mostly Cloudy,260,2012-12-06 12:00:00
1:30 PM,28.4,19.4,69,29.77,6.2,West,20.7,-,N/A,,Mostly Cloudy,270,2012-12-06 12:30:00
1:46 PM,28.4,19.4,69,29.77,6.2,West,21.9,-,N/A,Snow,Light Snow,270,2012-12-06 12:46:00
2:00 PM,28.4,21.2,74,29.77,2.8,West,18.4,-,N/A,Snow,Light Snow,270,2012-12-06 13:00:00
2:05 PM,28.4,21.2,74,29.77,5.0,West,17.3,-,N/A,Snow,Light Snow,260,2012-12-06 13:05:00
2:30 PM,28.4,21.2,74,29.80,6.2,West,16.1,-,N/A,Snow,Light Snow,260,2012-12-06 13:30:00
2:40 PM,28.4,21.2,74,29.80,6.2,West,17.3,-,N/A,,Mostly Cloudy,260,2012-12-06 13:40:00
3:00 PM,28.4,21.2,74,29.80,6.2,West,20.7,-,N/A,,Mostly Cloudy,260,2012-12-06 14:00:00
3:30 PM,28.4,21.2,74,29.83,6.2,West,18.4,-,N/A,,Mostly Cloudy,270,2012-12-06 14:30:00
4:00 PM,28.4,21.2,74,29.83,6.2,West,18.4,-,N/A,,Mostly Cloudy,270,2012-12-06 15:00:00
4:30 PM,26.6,21.2,80,29.83,6.2,West,15.0,-,N/A,,Mostly Cloudy,270,2012-12-06 15:30:00
4:53 PM,26.6,21.2,80,29.86,6.2,WNW,16.1,-,N/A,Snow,Light Snow,290,2012-12-06 15:53:00
5:00 PM,26.6,21.2,80,29.86,6.2,WNW,16.1,-,N/A,Snow,Light Snow,290,2012-12-06 16:00:00
5:30 PM,26.6,21.2,80,29.86,6.2,West,12.7,-,N/A,,Scattered Clouds,280,2012-12-06 16:30:00
6:00 PM,26.6,17.6,69,29.89,6.2,WNW,16.1,-,N/A,,Mostly Cloudy,290,2012-12-06 17:00:00
6:30 PM,26.6,19.4,74,29.89,6.2,NW,11.5,-,N/A,,Mostly Cloudy,310,2012-12-06 17:30:00
7:00 PM,26,15,52,30.00,25,NW,13.4,,,,Partly Cloudy,310,2012-12-06 18:00:00
7:00 PM,24.8,15.8,69,29.92,6.2,WNW,12.7,-,N/A,,Mostly Cloudy,300,2012-12-06 18:00:00
7:30 PM,24.8,15.8,69,29.92,6.2,WNW,15.0,-,N/A,,Mostly Cloudy,290,2012-12-06 18:30:00
8:00 PM,24.8,14.0,64,29.92,6.2,WNW,13.8,-,N/A,,Partly Cloudy,290,2012-12-06 19:00:00
8:30 PM,23.0,14.0,68,29.95,6.2,WNW,11.5,-,N/A,,Partly Cloudy,290,2012-12-06 19:30:00
9:00 PM,23.0,15.8,74,29.95,6.2,WSW,8.1,-,N/A,,Partly Cloudy,240,2012-12-06 20:00:00
9:30 PM,23.0,14.0,68,29.95,6.2,SW,9.2,-,N/A,,Scattered Clouds,230,2012-12-06 20:30:00
10:00 PM,23.0,15.8,74,29.95,6.2,SW,12.7,-,N/A,,Mostly Cloudy,230,2012-12-06 21:00:00
10:30 PM,23.0,15.8,74,29.95,3.1,WSW,15.0,-,N/A,Snow,Light Snow,240,2012-12-06 21:30:00
11:00 PM,21.2,15.8,80,29.95,6.2,SW,10.4,-,N/A,Snow,Light Snow Showers,220,2012-12-06 22:00:00
11:30 PM,23.0,17.6,80,29.95,6.2,SW,8.1,-,N/A,,Mostly Cloudy,220,2012-12-06 22:30:00